sat.trackr.live / text

‹ back to catalog

STARLINK-36488

NORAD 67306 · 2026-002B

PAYLOAD ACTIVE UNKNOWN

§ Identity

Operator
Country
US
Launch date
2026-01-04
Launch site
AFETR
Launch vehicle
Mass (kg)
RCS (m²)

Purposes: comms

External: N2YO · Heavens-Above · Gunter

§ Orbital elements

Epoch: 2026-09-19T11:34:22.380672Z

Period
94.27 min
Inclination
43.0019°
Eccentricity
0.0001505
Mean motion
15.27596953 rev/d
Perigee alt
482.0 km
Apogee alt
484.0 km
Semi-major
6,861.1 km
B*
4.9468e-4
RAAN
311.1226°
Arg perigee
271.2311°
Mean anomaly
88.8368°
Rev number
4,071

§ Raw data

STARLINK-364881 67306U 26002B   26262.48220348  .00013382  00000+0  49468-3 0  99912 67306  43.0019 311.1226 0001505 271.2311  88.8368 15.27596953 40710

JSON: /api/v1/satellites/67306 · /tle

For live sub-satellite position, see the globe view (requires WebGL).

§ Visibility from observer

Set your observer location to see the next 7 days of passes ≥ 10°. The values pass through the URL so the page stays shareable.

No JS? Fill the form by hand. The geolocation button needs JavaScript.